Location: Cosy Dell
(34.2789°N, 117.4537°W)
Time: 21:26:22
(UTC+00:00)

CZ-4C R/B - Pass Details

Date: 26 October 2020
Orbit: 623 x 1378 km, 63.4° (Epoch: 03 December)

Event Time Altitude Azimuth Distance (km) Brightness Sun altitude
Rises 04:52:44 0° 336° (NNW) 3,903 6.1 -47.6°
Reaches altitude 10° 04:55:30 10° 345° (NNW) 3,050 5.3 -48.1°
Enters shadow 04:55:37 11° 345° (NNW) 3,016 5.3 -48.1°
